Time,TemperatureF,DewpointF,PressureIn,WindDirection,WindDirectionDegrees,WindSpeedMPH,WindSpeedGustMPH,Humidity,HourlyPrecipIn,Conditions,Clouds,dailyrainin,SoftwareType,DateUTC
2013-01-25 00:03:00,54.4,54.4,30.07,ENE,70,0.0,0.0,100,0.00,,,0.00,Wunderground v.1.15,2013-01-25 08:03:00,
2013-01-25 00:08:00,54.4,54.4,30.07,ENE,70,0.0,0.0,100,0.00,,,0.00,Wunderground v.1.15,2013-01-25 08:08:00,
2013-01-25 00:13:00,54.5,54.5,30.07,ENE,70,0.0,0.0,100,0.00,,,0.00,Wunderground v.1.15,2013-01-25 08:13:00,
2013-01-25 00:18:00,54.7,54.7,30.06,ENE,70,0.0,1.0,100,0.00,,,0.00,Wunderground v.1.15,2013-01-25 08:18:00,
2013-01-25 00:23:00,54.8,54.8,30.06,ENE,70,0.0,0.0,100,0.00,,,0.00,Wunderground v.1.15,2013-01-25 08:23:00,
2013-01-25 00:28:00,54.7,54.7,30.06,ENE,70,0.0,0.0,100,0.00,,,0.00,Wunderground v.1.15,2013-01-25 08:28:00,
2013-01-25 00:33:00,54.4,54.4,30.06,ENE,70,0.0,0.0,100,0.00,,,0.00,Wunderground v.1.15,2013-01-25 08:33:00,
2013-01-25 00:38:00,54.4,54.4,30.06,ENE,70,0.0,0.0,100,0.00,,,0.00,Wunderground v.1.15,2013-01-25 08:38:00,
2013-01-25 00:43:00,54.4,54.4,30.06,ENE,70,0.0,0.0,100,0.00,,,0.00,Wunderground v.1.15,2013-01-25 08:43:00,
2013-01-25 00:48:00,54.4,54.4,30.06,ENE,70,0.0,0.0,100,0.00,,,0.00,Wunderground v.1.15,2013-01-25 08:48:00,
2013-01-25 00:53:00,54.4,54.4,30.06,ENE,70,0.0,0.0,100,0.00,,,0.00,Wunderground v.1.15,2013-01-25 08:53:00,
2013-01-25 00:58:00,54.4,54.4,30.06,ENE,70,0.0,0.0,100,0.00,,,0.00,Wunderground v.1.15,2013-01-25 08:58:00,
2013-01-25 01:03:00,54.4,54.4,30.06,ENE,70,0.0,0.0,100,0.00,,,0.00,Wunderground v.1.15,2013-01-25 09:03:00,
2013-01-25 01:08:00,54.4,54.4,30.06,ENE,70,0.0,0.0,100,0.00,,,0.00,Wunderground v.1.15,2013-01-25 09:08:00,
2013-01-25 01:13:00,54.4,54.4,30.06,ENE,70,0.0,0.0,100,0.00,,,0.00,Wunderground v.1.15,2013-01-25 09:13:00,
2013-01-25 01:18:00,54.5,54.5,30.06,ENE,70,0.0,0.0,100,0.00,,,0.00,Wunderground v.1.15,2013-01-25 09:18:00,
2013-01-25 01:23:00,54.7,54.7,30.06,ENE,70,0.0,0.0,100,0.00,,,0.00,Wunderground v.1.15,2013-01-25 09:23:00,
2013-01-25 01:28:00,54.7,54.7,30.06,ENE,70,0.0,0.0,100,0.00,,,0.00,Wunderground v.1.15,2013-01-25 09:28:00,
2013-01-25 01:33:00,54.7,54.7,30.06,ENE,70,0.0,0.0,100,0.00,,,0.00,Wunderground v.1.15,2013-01-25 09:33:00,
2013-01-25 01:38:00,54.7,54.7,30.06,ENE,70,0.0,0.0,100,0.00,,,0.00,Wunderground v.1.15,2013-01-25 09:38:00,
2013-01-25 01:43:00,54.7,54.7,30.07,ENE,70,0.0,0.0,100,0.00,,,0.00,Wunderground v.1.15,2013-01-25 09:43:00,
2013-01-25 01:49:00,54.8,54.8,30.07,ENE,70,0.0,0.0,100,0.00,,,0.00,Wunderground v.1.15,2013-01-25 09:49:00,
2013-01-25 01:54:00,55.0,55.0,30.07,ENE,70,0.0,0.0,100,0.00,,,0.00,Wunderground v.1.15,2013-01-25 09:54:00,
2013-01-25 01:59:00,55.0,55.0,30.07,ENE,70,0.0,0.0,100,0.00,,,0.00,Wunderground v.1.15,2013-01-25 09:59:00,
2013-01-25 02:04:00,55.0,55.0,30.07,ENE,70,0.0,0.0,100,0.00,,,0.00,Wunderground v.1.15,2013-01-25 10:04:00,
2013-01-25 02:09:00,55.1,55.1,30.07,ENE,70,0.0,1.0,100,0.00,,,0.01,Wunderground v.1.15,2013-01-25 10:09:00,
2013-01-25 02:14:00,55.1,55.1,30.06,ENE,70,0.0,0.0,100,0.07,,,0.02,Wunderground v.1.15,2013-01-25 10:14:00,
2013-01-25 02:19:00,55.4,55.4,30.06,ENE,70,0.0,1.0,100,0.07,,,0.02,Wunderground v.1.15,2013-01-25 10:19:00,
2013-01-25 02:24:00,55.4,55.4,30.06,ENE,70,0.0,0.0,100,0.06,,,0.02,Wunderground v.1.15,2013-01-25 10:24:00,
2013-01-25 02:29:00,55.4,55.4,30.06,ENE,70,0.0,0.0,100,0.04,,,0.02,Wunderground v.1.15,2013-01-25 10:29:00,
2013-01-25 02:34:00,55.6,55.6,30.06,ENE,70,0.0,0.0,100,0.00,,,0.02,Wunderground v.1.15,2013-01-25 10:34:00,
2013-01-25 02:39:00,55.9,55.9,30.06,ENE,70,0.0,2.0,100,0.00,,,0.02,Wunderground v.1.15,2013-01-25 10:39:00,
2013-01-25 02:44:00,56.0,56.0,30.06,ENE,70,0.0,0.0,100,0.00,,,0.02,Wunderground v.1.15,2013-01-25 10:44:00,
2013-01-25 02:49:00,55.9,55.9,30.06,ENE,70,0.0,0.0,100,0.00,,,0.02,Wunderground v.1.15,2013-01-25 10:49:00,
2013-01-25 02:54:00,55.7,55.7,30.06,ENE,70,0.0,0.0,100,0.00,,,0.02,Wunderground v.1.15,2013-01-25 10:54:00,
2013-01-25 02:59:00,55.6,55.6,30.05,ENE,70,0.0,0.0,100,0.00,,,0.02,Wunderground v.1.15,2013-01-25 10:59:00,
2013-01-25 03:04:00,55.6,55.6,30.05,ENE,70,0.0,0.0,100,0.00,,,0.02,Wunderground v.1.15,2013-01-25 11:04:00,
2013-01-25 03:09:00,55.6,55.6,30.05,ENE,70,0.0,0.0,100,0.00,,,0.02,Wunderground v.1.15,2013-01-25 11:09:00,
2013-01-25 03:14:00,55.6,55.6,30.05,ENE,70,0.0,0.0,100,0.00,,,0.02,Wunderground v.1.15,2013-01-25 11:14:00,
2013-01-25 03:19:00,55.6,55.6,30.05,ENE,70,0.0,0.0,100,0.00,,,0.02,Wunderground v.1.15,2013-01-25 11:19:00,
2013-01-25 03:24:00,55.4,55.4,30.05,ENE,70,0.0,0.0,100,0.00,,,0.02,Wunderground v.1.15,2013-01-25 11:24:00,
2013-01-25 03:29:00,55.4,55.4,30.04,ENE,70,0.0,0.0,100,0.00,,,0.02,Wunderground v.1.15,2013-01-25 11:29:00,
2013-01-25 03:34:00,55.6,55.6,30.04,ENE,70,0.0,0.0,100,0.00,,,0.02,Wunderground v.1.15,2013-01-25 11:34:00,
2013-01-25 03:39:00,55.6,55.6,30.04,ENE,70,0.0,0.0,100,0.00,,,0.02,Wunderground v.1.15,2013-01-25 11:39:00,
2013-01-25 03:44:00,55.4,55.4,30.04,ENE,70,0.0,0.0,100,0.00,,,0.02,Wunderground v.1.15,2013-01-25 11:44:00,
2013-01-25 03:49:00,55.4,55.4,30.04,ENE,70,0.0,0.0,100,0.00,,,0.02,Wunderground v.1.15,2013-01-25 11:49:00,
2013-01-25 03:54:00,55.6,55.6,30.04,ENE,70,0.0,1.0,100,0.00,,,0.02,Wunderground v.1.15,2013-01-25 11:54:00,
2013-01-25 03:59:00,55.6,55.6,30.04,ENE,70,0.0,1.0,100,0.00,,,0.02,Wunderground v.1.15,2013-01-25 11:59:00,
2013-01-25 04:04:00,55.6,55.6,30.04,ENE,70,0.0,0.0,100,0.00,,,0.02,Wunderground v.1.15,2013-01-25 12:04:00,
2013-01-25 04:09:00,55.7,55.7,30.04,ENE,70,0.0,1.0,100,0.00,,,0.02,Wunderground v.1.15,2013-01-25 12:09:00,
2013-01-25 04:14:00,55.9,55.9,30.04,ENE,70,0.0,0.0,100,0.00,,,0.02,Wunderground v.1.15,2013-01-25 12:14:00,
2013-01-25 04:19:00,55.9,55.9,30.04,ENE,70,1.0,1.0,100,0.00,,,0.02,Wunderground v.1.15,2013-01-25 12:19:00,
2013-01-25 04:24:00,56.0,56.0,30.04,ENE,70,0.0,1.0,100,0.00,,,0.02,Wunderground v.1.15,2013-01-25 12:24:00,
2013-01-25 04:29:00,56.2,56.2,30.03,ENE,70,0.0,1.0,100,0.00,,,0.02,Wunderground v.1.15,2013-01-25 12:29:00,
2013-01-25 04:34:00,56.2,56.2,30.03,ENE,70,0.0,1.0,100,0.00,,,0.02,Wunderground v.1.15,2013-01-25 12:34:00,
2013-01-25 04:39:00,56.2,56.2,30.03,ENE,70,0.0,2.0,100,0.00,,,0.02,Wunderground v.1.15,2013-01-25 12:39:00,
2013-01-25 04:44:00,56.2,56.2,30.03,ENE,70,0.0,1.0,100,0.00,,,0.02,Wunderground v.1.15,2013-01-25 12:44:00,
2013-01-25 04:49:00,56.2,56.2,30.03,ENE,70,0.0,1.0,100,0.00,,,0.02,Wunderground v.1.15,2013-01-25 12:49:00,
2013-01-25 04:54:00,56.2,56.2,30.03,SW,219,1.0,3.0,100,0.00,,,0.02,Wunderground v.1.15,2013-01-25 12:54:00,
2013-01-25 04:59:00,56.2,56.2,30.03,SW,219,1.0,3.0,100,0.00,,,0.02,Wunderground v.1.15,2013-01-25 12:59:00,
2013-01-25 05:04:00,56.2,56.2,30.03,SW,228,0.0,2.0,100,0.00,,,0.02,Wunderground v.1.15,2013-01-25 13:04:00,
2013-01-25 05:09:00,56.2,56.2,30.03,SW,229,0.0,2.0,100,0.00,,,0.02,Wunderground v.1.15,2013-01-25 13:09:00,
2013-01-25 05:14:00,56.2,56.2,30.03,SW,229,1.0,2.0,100,0.00,,,0.02,Wunderground v.1.15,2013-01-25 13:14:00,
2013-01-25 05:19:00,56.3,56.3,30.03,SW,229,0.0,2.0,100,0.00,,,0.02,Wunderground v.1.15,2013-01-25 13:19:00,
2013-01-25 05:24:00,56.3,56.3,30.03,SW,229,1.0,2.0,100,0.00,,,0.02,Wunderground v.1.15,2013-01-25 13:24:00,
2013-01-25 05:29:00,56.5,56.5,30.03,SW,229,0.0,2.0,100,0.00,,,0.02,Wunderground v.1.15,2013-01-25 13:29:00,
2013-01-25 05:34:00,56.5,56.5,30.03,SW,229,0.0,1.0,100,0.00,,,0.02,Wunderground v.1.15,2013-01-25 13:34:00,
2013-01-25 05:39:00,56.5,56.5,30.03,SW,229,0.0,1.0,100,0.00,,,0.02,Wunderground v.1.15,2013-01-25 13:39:00,
2013-01-25 05:44:00,56.5,56.5,30.02,SW,229,0.0,1.0,100,0.00,,,0.02,Wunderground v.1.15,2013-01-25 13:44:00,
2013-01-25 05:49:00,56.5,56.5,30.02,SW,229,0.0,1.0,100,0.00,,,0.02,Wunderground v.1.15,2013-01-25 13:49:00,
2013-01-25 05:54:00,56.5,56.5,30.02,SW,229,0.0,1.0,100,0.00,,,0.02,Wunderground v.1.15,2013-01-25 13:54:00,
2013-01-25 05:59:00,56.5,56.5,30.02,SW,229,0.0,1.0,100,0.00,,,0.02,Wunderground v.1.15,2013-01-25 13:59:00,
2013-01-25 06:04:00,56.5,56.5,30.02,SW,229,0.0,1.0,100,0.00,,,0.02,Wunderground v.1.15,2013-01-25 14:04:00,
2013-01-25 06:09:00,56.3,56.3,30.02,SW,229,0.0,1.0,100,0.00,,,0.02,Wunderground v.1.15,2013-01-25 14:09:00,
2013-01-25 06:14:00,56.2,56.2,30.02,SW,229,0.0,0.0,100,0.00,,,0.02,Wunderground v.1.15,2013-01-25 14:14:00,
2013-01-25 06:19:00,56.0,56.0,30.02,SW,229,0.0,1.0,100,0.00,,,0.02,Wunderground v.1.15,2013-01-25 14:19:00,
2013-01-25 06:24:00,55.9,55.9,30.02,East,85,0.0,3.0,100,0.00,,,0.02,Wunderground v.1.15,2013-01-25 14:24:00,
2013-01-25 06:29:00,55.9,55.9,30.02,East,82,0.0,3.0,100,0.00,,,0.02,Wunderground v.1.15,2013-01-25 14:29:00,
2013-01-25 06:34:00,55.9,55.9,30.02,North,8,0.0,2.0,100,0.00,,,0.02,Wunderground v.1.15,2013-01-25 14:34:00,
2013-01-25 06:39:00,55.9,55.9,30.02,NNE,26,0.0,2.0,100,0.00,,,0.02,Wunderground v.1.15,2013-01-25 14:39:00,
2013-01-25 06:44:00,55.7,55.7,30.02,NNE,26,0.0,1.0,100,0.00,,,0.02,Wunderground v.1.15,2013-01-25 14:44:00,
2013-01-25 06:49:00,55.7,55.7,30.02,NNE,26,0.0,1.0,100,0.00,,,0.02,Wunderground v.1.15,2013-01-25 14:49:00,
2013-01-25 06:54:00,55.3,55.3,30.02,NNE,26,0.0,2.0,100,0.00,,,0.02,Wunderground v.1.15,2013-01-25 14:54:00,
2013-01-25 06:59:00,55.1,55.1,30.03,NNE,26,0.0,2.0,100,0.00,,,0.02,Wunderground v.1.15,2013-01-25 14:59:00,
2013-01-25 07:04:00,55.0,55.0,30.03,NNE,26,0.0,0.0,100,0.00,,,0.02,Wunderground v.1.15,2013-01-25 15:04:00,
2013-01-25 07:09:00,54.8,54.8,30.03,SE,129,0.0,0.0,100,0.00,,,0.02,Wunderground v.1.15,2013-01-25 15:09:00,
2013-01-25 07:14:00,54.5,54.5,30.03,SE,129,0.0,2.0,100,0.00,,,0.02,Wunderground v.1.15,2013-01-25 15:14:00,
2013-01-25 07:19:00,54.7,54.7,30.03,East,98,3.0,3.0,100,0.00,,,0.02,Wunderground v.1.15,2013-01-25 15:19:00,
2013-01-25 07:24:00,55.0,55.0,30.03,ESE,112,0.0,2.0,100,0.00,,,0.02,Wunderground v.1.15,2013-01-25 15:24:00,
2013-01-25 07:29:00,55.1,55.1,30.03,ESE,112,0.0,2.0,100,0.00,,,0.02,Wunderground v.1.15,2013-01-25 15:29:00,
2013-01-25 07:34:00,55.4,55.4,30.03,East,88,0.0,1.0,100,0.00,,,0.02,Wunderground v.1.15,2013-01-25 15:34:00,
2013-01-25 07:39:00,55.6,55.6,30.03,East,88,0.0,1.0,100,0.00,,,0.02,Wunderground v.1.15,2013-01-25 15:39:00,
2013-01-25 07:44:00,55.7,55.7,30.04,East,88,0.0,1.0,100,0.00,,,0.02,Wunderground v.1.15,2013-01-25 15:44:00,
2013-01-25 07:49:00,55.9,55.9,30.04,East,84,0.0,2.0,100,0.00,,,0.02,Wunderground v.1.15,2013-01-25 15:49:00,
2013-01-25 07:54:00,56.0,56.0,30.04,East,84,0.0,0.0,100,0.00,,,0.02,Wunderground v.1.15,2013-01-25 15:54:00,
2013-01-25 07:59:00,56.2,56.2,30.04,East,84,0.0,0.0,100,0.00,,,0.02,Wunderground v.1.15,2013-01-25 15:59:00,
2013-01-25 08:04:00,56.5,56.5,30.04,East,84,0.0,1.0,100,0.00,,,0.02,Wunderground v.1.15,2013-01-25 16:04:00,
2013-01-25 08:09:00,56.7,56.7,30.04,East,84,0.0,1.0,100,0.00,,,0.02,Wunderground v.1.15,2013-01-25 16:09:00,
2013-01-25 08:14:00,57.3,57.3,30.03,East,84,0.0,0.0,100,0.00,,,0.02,Wunderground v.1.15,2013-01-25 16:14:00,
2013-01-25 08:19:00,58.3,58.3,30.03,East,84,0.0,2.0,100,0.00,,,0.02,Wunderground v.1.15,2013-01-25 16:19:00,
2013-01-25 08:24:00,59.0,58.2,30.03,East,84,0.0,2.0,97,0.00,,,0.02,Wunderground v.1.15,2013-01-25 16:24:00,
2013-01-25 08:29:00,59.8,58.7,30.03,ENE,76,0.0,2.0,96,0.00,,,0.02,Wunderground v.1.15,2013-01-25 16:29:00,
2013-01-25 08:34:00,60.5,58.5,30.03,ENE,76,0.0,0.0,93,0.00,,,0.02,Wunderground v.1.15,2013-01-25 16:34:00,
2013-01-25 08:39:00,60.9,58.6,30.03,ENE,76,0.0,0.0,92,0.00,,,0.02,Wunderground v.1.15,2013-01-25 16:39:00,
2013-01-25 08:44:00,61.2,58.2,30.02,ENE,76,0.0,1.0,90,0.00,,,0.02,Wunderground v.1.15,2013-01-25 16:44:00,
2013-01-25 08:49:00,61.2,57.9,30.02,ENE,76,0.0,1.0,89,0.00,,,0.02,Wunderground v.1.15,2013-01-25 16:49:00,
2013-01-25 08:54:00,61.3,57.7,30.02,East,84,0.0,1.0,88,0.00,,,0.02,Wunderground v.1.15,2013-01-25 16:54:00,
2013-01-25 08:59:00,61.6,58.0,30.03,East,84,0.0,1.0,88,0.00,,,0.02,Wunderground v.1.15,2013-01-25 16:59:00,
2013-01-25 09:04:00,62.0,57.8,30.03,ENE,75,0.0,1.0,86,0.00,,,0.02,Wunderground v.1.15,2013-01-25 17:04:00,
2013-01-25 09:09:00,62.1,57.9,30.03,ENE,76,0.0,1.0,86,0.00,,,0.02,Wunderground v.1.15,2013-01-25 17:09:00,
2013-01-25 09:14:00,62.1,56.9,30.03,ENE,76,0.0,1.0,83,0.00,,,0.02,Wunderground v.1.15,2013-01-25 17:14:00,
2013-01-25 09:19:00,62.4,57.2,30.03,ENE,76,0.0,2.0,83,0.00,,,0.02,Wunderground v.1.15,2013-01-25 17:19:00,
2013-01-25 09:24:00,62.6,56.7,30.03,ESE,123,2.0,4.0,81,0.00,,,0.02,Wunderground v.1.15,2013-01-25 17:24:00,
2013-01-25 09:29:00,62.9,56.3,30.03,ESE,123,2.0,4.0,79,0.00,,,0.02,Wunderground v.1.15,2013-01-25 17:29:00,
2013-01-25 09:34:00,63.1,56.5,30.03,ENE,77,0.0,3.0,79,0.00,,,0.02,Wunderground v.1.15,2013-01-25 17:34:00,
2013-01-25 09:39:00,63.7,57.1,30.03,ESE,102,0.0,4.0,79,0.00,,,0.02,Wunderground v.1.15,2013-01-25 17:39:00,
2013-01-25 09:44:00,64.2,56.5,30.03,East,98,0.0,3.0,76,0.00,,,0.02,Wunderground v.1.15,2013-01-25 17:44:00,
2013-01-25 09:49:00,65.0,56.5,30.03,ESE,115,1.0,4.0,74,0.00,,,0.02,Wunderground v.1.15,2013-01-25 17:49:00,
2013-01-25 09:54:00,65.6,57.1,30.03,ESE,108,2.0,4.0,74,0.00,,,0.02,Wunderground v.1.15,2013-01-25 17:54:00,
2013-01-25 09:59:00,65.8,56.9,30.03,East,100,1.0,4.0,73,0.00,,,0.02,Wunderground v.1.15,2013-01-25 17:59:00,
2013-01-25 10:04:00,65.8,55.7,30.03,ESE,108,3.0,10.0,70,0.00,,,0.02,Wunderground v.1.15,2013-01-25 18:04:00,
2013-01-25 10:09:00,66.0,55.9,30.03,SE,126,1.0,10.0,70,0.00,,,0.02,Wunderground v.1.15,2013-01-25 18:09:00,
2013-01-25 10:14:00,66.1,55.6,30.04,SE,127,3.0,7.0,69,0.00,,,0.02,Wunderground v.1.15,2013-01-25 18:14:00,
2013-01-25 10:19:00,66.4,56.3,30.04,ESE,108,4.0,7.0,70,0.00,,,0.02,Wunderground v.1.15,2013-01-25 18:19:00,
2013-01-25 10:24:00,66.6,56.5,30.04,ESE,110,6.0,7.0,70,0.00,,,0.02,Wunderground v.1.15,2013-01-25 18:24:00,
2013-01-25 10:29:00,66.8,55.9,30.03,ESE,122,5.0,8.0,68,0.00,,,0.02,Wunderground v.1.15,2013-01-25 18:29:00,
2013-01-25 10:34:00,66.8,56.7,30.03,NE,51,3.0,10.0,70,0.00,,,0.02,Wunderground v.1.15,2013-01-25 18:34:00,
2013-01-25 10:39:00,67.3,56.4,30.03,East,100,0.0,10.0,68,0.00,,,0.02,Wunderground v.1.15,2013-01-25 18:39:00,
2013-01-25 10:44:00,67.3,56.4,30.03,North,1,0.0,8.0,68,0.00,,,0.02,Wunderground v.1.15,2013-01-25 18:44:00,
2013-01-25 10:49:00,67.1,56.6,30.03,ENE,74,2.0,9.0,69,0.00,,,0.02,Wunderground v.1.15,2013-01-25 18:49:00,
2013-01-25 10:54:00,66.8,56.3,30.03,SE,131,3.0,7.0,69,0.00,,,0.02,Wunderground v.1.15,2013-01-25 18:54:00,
2013-01-25 10:59:00,66.9,55.6,30.03,ENE,65,0.0,7.0,67,0.00,,,0.02,Wunderground v.1.15,2013-01-25 18:59:00,
2013-01-25 11:04:00,67.3,56.4,30.03,ENE,58,0.0,5.0,68,0.00,,,0.02,Wunderground v.1.15,2013-01-25 19:04:00,
2013-01-25 11:09:00,67.4,55.6,30.03,SE,130,2.0,9.0,66,0.00,,,0.02,Wunderground v.1.15,2013-01-25 19:09:00,
2013-01-25 11:14:00,67.6,55.4,30.02,ENE,78,1.0,6.0,65,0.00,,,0.02,Wunderground v.1.15,2013-01-25 19:14:00,
2013-01-25 11:19:00,68.1,56.3,30.02,East,101,2.0,7.0,66,0.00,,,0.02,Wunderground v.1.15,2013-01-25 19:19:00,
2013-01-25 11:24:00,68.4,55.7,30.02,ESE,102,3.0,8.0,64,0.00,,,0.02,Wunderground v.1.15,2013-01-25 19:24:00,
2013-01-25 11:29:00,68.4,55.7,30.02,East,98,3.0,8.0,64,0.00,,,0.02,Wunderground v.1.15,2013-01-25 19:29:00,
2013-01-25 11:34:00,68.1,55.9,30.02,ESE,121,3.0,8.0,65,0.00,,,0.02,Wunderground v.1.15,2013-01-25 19:34:00,
2013-01-25 11:39:00,67.8,56.0,30.02,ESE,106,4.0,9.0,66,0.00,,,0.02,Wunderground v.1.15,2013-01-25 19:39:00,
2013-01-25 11:44:00,67.9,56.5,30.01,ESE,113,6.0,7.0,67,0.00,,,0.02,Wunderground v.1.15,2013-01-25 19:44:00,
2013-01-25 11:49:00,68.3,56.5,30.01,ESE,105,2.0,3.0,66,0.00,,,0.02,Wunderground v.1.15,2013-01-25 19:49:00,
2013-01-25 11:54:00,68.4,56.2,30.01,ENE,61,0.0,6.0,65,0.00,,,0.02,Wunderground v.1.15,2013-01-25 19:54:00,
2013-01-25 11:59:00,69.1,56.8,30.01,SE,129,4.0,6.0,65,0.00,,,0.02,Wunderground v.1.15,2013-01-25 19:59:00,
2013-01-25 12:04:00,68.9,56.6,30.01,ESE,107,0.0,5.0,65,0.00,,,0.02,Wunderground v.1.15,2013-01-25 20:04:00,
2013-01-25 12:09:00,69.1,56.4,30.01,East,94,2.0,5.0,64,0.00,,,0.02,Wunderground v.1.15,2013-01-25 20:09:00,
2013-01-25 12:14:00,68.8,57.8,30.00,ESE,108,1.0,4.0,68,0.00,,,0.02,Wunderground v.1.15,2013-01-25 20:14:00,
2013-01-25 12:19:00,67.9,56.9,30.00,WNW,288,1.0,5.0,68,0.00,,,0.02,Wunderground v.1.15,2013-01-25 20:19:00,
2013-01-25 12:24:00,66.3,57.0,30.00,NNW,327,3.0,8.0,72,0.00,,,0.02,Wunderground v.1.15,2013-01-25 20:24:00,
2013-01-25 12:29:00,65.8,57.3,29.99,NNW,343,2.0,8.0,74,0.00,,,0.02,Wunderground v.1.15,2013-01-25 20:29:00,
2013-01-25 12:34:00,65.5,57.0,29.99,West,270,0.0,7.0,74,0.00,,,0.02,Wunderground v.1.15,2013-01-25 20:34:00,
2013-01-25 12:39:00,65.5,57.4,29.99,West,262,2.0,7.0,75,0.00,,,0.02,Wunderground v.1.15,2013-01-25 20:39:00,
2013-01-25 12:44:00,65.3,57.2,29.98,North,359,2.0,4.0,75,0.00,,,0.02,Wunderground v.1.15,2013-01-25 20:44:00,
2013-01-25 12:49:00,65.5,57.4,29.98,NE,40,0.0,4.0,75,0.00,,,0.02,Wunderground v.1.15,2013-01-25 20:49:00,
2013-01-25 12:54:00,65.6,57.1,29.98,NNE,21,2.0,4.0,74,0.00,,,0.02,Wunderground v.1.15,2013-01-25 20:54:00,
2013-01-25 12:59:00,65.8,57.3,29.98,West,262,0.0,4.0,74,0.00,,,0.02,Wunderground v.1.15,2013-01-25 20:59:00,
2013-01-25 13:04:00,66.0,57.1,29.98,SW,217,0.0,3.0,73,0.00,,,0.02,Wunderground v.1.15,2013-01-25 21:04:00,
2013-01-25 13:09:00,66.1,57.2,29.98,West,260,0.0,3.0,73,0.00,,,0.02,Wunderground v.1.15,2013-01-25 21:09:00,
2013-01-25 13:14:00,66.4,57.1,29.96,South,170,0.0,3.0,72,0.00,,,0.02,Wunderground v.1.15,2013-01-25 21:14:00,
2013-01-25 13:19:00,66.8,57.9,29.96,South,177,0.0,3.0,73,0.00,,,0.02,Wunderground v.1.15,2013-01-25 21:19:00,
2013-01-25 13:24:00,66.9,57.2,29.96,WSW,255,0.0,4.0,71,0.00,,,0.02,Wunderground v.1.15,2013-01-25 21:24:00,
2013-01-25 13:29:00,66.6,57.3,29.96,SW,219,0.0,4.0,72,0.00,,,0.02,Wunderground v.1.15,2013-01-25 21:29:00,
2013-01-25 13:34:00,66.3,57.4,29.96,East,81,0.0,2.0,73,0.00,,,0.02,Wunderground v.1.15,2013-01-25 21:34:00,
2013-01-25 13:39:00,66.0,57.1,29.96,East,81,1.0,2.0,73,0.00,,,0.02,Wunderground v.1.15,2013-01-25 21:39:00,
2013-01-25 13:44:00,66.0,57.5,29.95,WSW,257,0.0,3.0,74,0.00,,,0.02,Wunderground v.1.15,2013-01-25 21:44:00,
2013-01-25 13:49:00,65.5,57.0,29.95,West,281,0.0,4.0,74,0.00,,,0.02,Wunderground v.1.15,2013-01-25 21:49:00,
2013-01-25 13:54:00,65.0,56.5,29.95,West,263,2.0,5.0,74,0.00,,,0.02,Wunderground v.1.15,2013-01-25 21:54:00,
2013-01-25 13:59:00,64.8,57.1,29.95,West,263,0.0,1.0,76,0.00,,,0.02,Wunderground v.1.15,2013-01-25 21:59:00,
2013-01-25 14:04:00,64.8,56.7,29.95,West,263,0.0,3.0,75,0.00,,,0.02,Wunderground v.1.15,2013-01-25 22:04:00,
2013-01-25 14:09:00,64.7,56.6,29.95,North,3,0.0,0.0,75,0.00,,,0.02,Wunderground v.1.15,2013-01-25 22:09:00,
2013-01-25 14:14:00,64.7,56.6,29.95,North,359,0.0,1.0,75,0.00,,,0.02,Wunderground v.1.15,2013-01-25 22:14:00,
2013-01-25 14:19:00,65.0,56.9,29.95,North,359,0.0,0.0,75,0.00,,,0.02,Wunderground v.1.15,2013-01-25 22:19:00,
2013-01-25 14:24:00,65.0,56.9,29.95,WNW,291,0.0,3.0,75,0.00,,,0.02,Wunderground v.1.15,2013-01-25 22:24:00,
2013-01-25 14:29:00,65.0,56.9,29.95,North,1,1.0,1.0,75,0.00,,,0.02,Wunderground v.1.15,2013-01-25 22:29:00,
2013-01-25 14:34:00,64.7,56.6,29.95,West,270,0.0,4.0,75,0.00,,,0.02,Wunderground v.1.15,2013-01-25 22:34:00,
2013-01-25 14:39:00,64.5,56.4,29.95,West,270,0.0,1.0,75,0.00,,,0.02,Wunderground v.1.15,2013-01-25 22:39:00,
2013-01-25 14:44:00,64.3,56.6,29.95,WSW,252,1.0,3.0,76,0.00,,,0.02,Wunderground v.1.15,2013-01-25 22:44:00,
2013-01-25 14:49:00,64.0,56.3,29.95,NNW,340,0.0,1.0,76,0.00,,,0.02,Wunderground v.1.15,2013-01-25 22:49:00,
2013-01-25 14:54:00,64.0,56.6,29.95,NNW,332,2.0,3.0,77,0.00,,,0.02,Wunderground v.1.15,2013-01-25 22:54:00,
2013-01-25 14:59:00,63.7,56.0,29.95,West,276,1.0,1.0,76,0.00,,,0.02,Wunderground v.1.15,2013-01-25 22:59:00,
2013-01-25 15:04:00,63.4,56.1,29.95,West,276,0.0,2.0,77,0.00,,,0.02,Wunderground v.1.15,2013-01-25 23:04:00,
2013-01-25 15:09:00,63.4,56.4,29.95,West,276,0.0,0.0,78,0.00,,,0.02,Wunderground v.1.15,2013-01-25 23:09:00,
2013-01-25 15:14:00,63.1,56.1,29.95,West,274,0.0,5.0,78,0.00,,,0.02,Wunderground v.1.15,2013-01-25 23:14:00,
2013-01-25 15:19:00,62.9,56.3,29.95,West,274,0.0,1.0,79,0.00,,,0.02,Wunderground v.1.15,2013-01-25 23:19:00,
2013-01-25 15:24:00,62.7,56.1,29.95,West,276,0.0,1.0,79,0.00,,,0.02,Wunderground v.1.15,2013-01-25 23:24:00,
2013-01-25 15:29:00,62.4,56.1,29.95,NNW,340,2.0,2.0,80,0.00,,,0.02,Wunderground v.1.15,2013-01-25 23:29:00,
2013-01-25 15:34:00,62.0,55.8,29.95,NNW,348,0.0,5.0,80,0.00,,,0.02,Wunderground v.1.15,2013-01-25 23:34:00,
2013-01-25 15:39:00,61.8,55.9,29.95,NW,326,2.0,2.0,81,0.00,,,0.02,Wunderground v.1.15,2013-01-25 23:39:00,
2013-01-25 15:44:00,61.5,56.0,29.94,NW,316,1.0,3.0,82,0.00,,,0.02,Wunderground v.1.15,2013-01-25 23:44:00,
2013-01-25 15:49:00,61.5,56.3,29.94,NW,316,0.0,0.0,83,0.00,,,0.02,Wunderground v.1.15,2013-01-25 23:49:00,
2013-01-25 15:54:00,61.5,56.6,29.94,NW,316,0.0,0.0,84,0.00,,,0.02,Wunderground v.1.15,2013-01-25 23:54:00,
2013-01-25 15:59:00,61.3,56.8,29.93,NW,316,0.0,0.0,85,0.00,,,0.02,Wunderground v.1.15,2013-01-25 23:59:00,
2013-01-25 16:04:00,61.3,57.1,29.93,NW,316,0.0,0.0,86,0.00,,,0.02,Wunderground v.1.15,2013-01-26 00:04:00,
2013-01-25 16:09:00,61.2,57.0,29.93,NW,316,0.0,0.0,86,0.00,,,0.02,Wunderground v.1.15,2013-01-26 00:09:00,
2013-01-25 16:14:00,61.2,57.0,29.93,NW,316,0.0,0.0,86,0.00,,,0.02,Wunderground v.1.15,2013-01-26 00:14:00,
2013-01-25 16:19:00,61.0,56.8,29.93,NW,316,0.0,0.0,86,0.00,,,0.02,Wunderground v.1.15,2013-01-26 00:19:00,
2013-01-25 16:24:00,60.9,56.7,29.93,NW,316,0.0,0.0,86,0.00,,,0.02,Wunderground v.1.15,2013-01-26 00:24:00,
2013-01-25 16:29:00,60.7,56.8,29.93,NW,316,0.0,0.0,87,0.00,,,0.02,Wunderground v.1.15,2013-01-26 00:29:00,
2013-01-25 16:34:00,60.5,56.6,29.93,NW,316,0.0,0.0,87,0.00,,,0.02,Wunderground v.1.15,2013-01-26 00:34:00,
2013-01-25 16:40:00,60.5,56.6,29.93,NW,316,0.0,0.0,87,0.00,,,0.02,Wunderground v.1.15,2013-01-26 00:40:00,
2013-01-25 16:45:00,60.5,56.6,29.93,NW,316,0.0,0.0,87,0.00,,,0.02,Wunderground v.1.15,2013-01-26 00:45:00,
2013-01-25 16:50:00,60.4,56.5,29.93,NW,316,0.0,0.0,87,0.00,,,0.02,Wunderground v.1.15,2013-01-26 00:50:00,
2013-01-25 16:55:00,60.4,56.5,29.93,NW,316,0.0,0.0,87,0.00,,,0.02,Wunderground v.1.15,2013-01-26 00:55:00,
2013-01-25 17:00:00,60.2,56.3,29.93,NNW,341,0.0,0.0,87,0.00,,,0.02,Wunderground v.1.15,2013-01-26 01:00:00,
2013-01-25 17:05:00,60.1,56.2,29.93,WNW,287,2.0,4.0,87,0.00,,,0.02,Wunderground v.1.15,2013-01-26 01:05:00,
2013-01-25 17:10:00,59.6,55.7,29.93,WNW,287,2.0,3.0,87,0.00,,,0.02,Wunderground v.1.15,2013-01-26 01:10:00,
2013-01-25 17:15:00,59.0,55.4,29.94,WSW,258,0.0,3.0,88,0.00,,,0.02,Wunderground v.1.15,2013-01-26 01:15:00,
2013-01-25 17:20:00,58.7,55.5,29.94,WSW,258,0.0,1.0,89,0.00,,,0.02,Wunderground v.1.15,2013-01-26 01:20:00,
2013-01-25 17:25:00,58.3,55.4,29.94,WSW,258,0.0,1.0,90,0.00,,,0.02,Wunderground v.1.15,2013-01-26 01:25:00,
2013-01-25 17:30:00,57.8,55.2,29.95,WSW,258,0.0,0.0,91,0.00,,,0.02,Wunderground v.1.15,2013-01-26 01:30:00,
2013-01-25 17:35:00,57.5,54.9,29.95,WSW,258,0.0,0.0,91,0.00,,,0.02,Wunderground v.1.15,2013-01-26 01:35:00,
2013-01-25 17:40:00,57.2,54.9,29.95,WSW,258,0.0,0.0,92,0.00,,,0.02,Wunderground v.1.15,2013-01-26 01:40:00,
2013-01-25 17:45:00,57.0,54.7,29.95,WSW,258,0.0,0.0,92,0.00,,,0.02,Wunderground v.1.15,2013-01-26 01:45:00,
2013-01-25 17:50:00,56.9,54.6,29.95,WSW,258,0.0,0.0,92,0.00,,,0.02,Wunderground v.1.15,2013-01-26 01:50:00,
2013-01-25 17:55:00,56.7,54.7,29.95,WSW,258,0.0,0.0,93,0.00,,,0.02,Wunderground v.1.15,2013-01-26 01:55:00,
2013-01-25 18:00:00,56.6,54.6,29.95,WSW,258,0.0,0.0,93,0.00,,,0.02,Wunderground v.1.15,2013-01-26 02:00:00,
2013-01-25 18:05:00,56.5,54.8,29.95,WSW,258,0.0,0.0,94,0.00,,,0.02,Wunderground v.1.15,2013-01-26 02:05:00,
2013-01-25 18:10:00,56.3,54.6,29.95,WSW,258,0.0,0.0,94,0.00,,,0.02,Wunderground v.1.15,2013-01-26 02:10:00,
2013-01-25 18:15:00,56.3,54.6,29.95,WSW,258,0.0,2.0,94,0.00,,,0.02,Wunderground v.1.15,2013-01-26 02:15:00,
2013-01-25 18:20:00,56.2,54.8,29.95,WSW,258,0.0,0.0,95,0.00,,,0.02,Wunderground v.1.15,2013-01-26 02:20:00,
2013-01-25 18:25:00,56.0,54.6,29.95,WSW,258,0.0,1.0,95,0.00,,,0.02,Wunderground v.1.15,2013-01-26 02:25:00,
2013-01-25 18:30:00,56.2,55.1,29.95,WSW,258,0.0,0.0,96,0.00,,,0.02,Wunderground v.1.15,2013-01-26 02:30:00,
2013-01-25 18:35:00,56.3,54.9,29.95,WSW,258,0.0,0.0,95,0.00,,,0.02,Wunderground v.1.15,2013-01-26 02:35:00,
2013-01-25 18:40:00,56.2,54.8,29.95,WSW,258,0.0,0.0,95,0.00,,,0.02,Wunderground v.1.15,2013-01-26 02:40:00,
2013-01-25 18:45:00,56.3,54.9,29.95,WSW,258,0.0,1.0,95,0.00,,,0.02,Wunderground v.1.15,2013-01-26 02:45:00,
2013-01-25 18:50:00,56.6,55.2,29.95,WSW,258,0.0,0.0,95,0.00,,,0.02,Wunderground v.1.15,2013-01-26 02:50:00,
2013-01-25 18:55:00,56.9,55.2,29.95,WSW,258,0.0,1.0,94,0.00,,,0.02,Wunderground v.1.15,2013-01-26 02:55:00,
2013-01-25 19:00:00,57.0,55.0,29.95,WSW,258,0.0,1.0,93,0.00,,,0.02,Wunderground v.1.15,2013-01-26 03:00:00,
2013-01-25 19:05:00,57.2,54.9,29.95,WSW,258,0.0,1.0,92,0.00,,,0.02,Wunderground v.1.15,2013-01-26 03:05:00,
2013-01-25 19:10:00,57.3,54.7,29.95,WSW,258,0.0,1.0,91,0.00,,,0.02,Wunderground v.1.15,2013-01-26 03:10:00,
2013-01-25 19:15:00,57.3,54.4,29.95,WSW,258,0.0,1.0,90,0.00,,,0.02,Wunderground v.1.15,2013-01-26 03:15:00,
2013-01-25 19:20:00,57.2,54.3,29.95,WSW,258,0.0,0.0,90,0.00,,,0.02,Wunderground v.1.15,2013-01-26 03:20:00,
2013-01-25 19:25:00,57.0,54.1,29.95,WSW,258,0.0,1.0,90,0.00,,,0.02,Wunderground v.1.15,2013-01-26 03:25:00,
2013-01-25 19:30:00,56.7,53.8,29.95,WSW,258,0.0,0.0,90,0.00,,,0.02,Wunderground v.1.15,2013-01-26 03:30:00,
2013-01-25 19:35:00,56.5,53.6,29.95,WSW,258,0.0,1.0,90,0.00,,,0.02,Wunderground v.1.15,2013-01-26 03:35:00,
2013-01-25 19:40:00,56.3,53.7,29.95,WSW,258,0.0,0.0,91,0.00,,,0.02,Wunderground v.1.15,2013-01-26 03:40:00,
2013-01-25 19:45:00,56.2,53.6,29.95,WSW,258,0.0,0.0,91,0.00,,,0.02,Wunderground v.1.15,2013-01-26 03:45:00,
2013-01-25 19:50:00,56.0,53.7,29.95,WSW,258,0.0,0.0,92,0.00,,,0.02,Wunderground v.1.15,2013-01-26 03:50:00,
2013-01-25 19:55:00,56.0,53.7,29.95,WSW,258,0.0,0.0,92,0.00,,,0.02,Wunderground v.1.15,2013-01-26 03:55:00,
2013-01-25 20:00:00,56.2,53.9,29.95,WSW,258,1.0,1.0,92,0.00,,,0.02,Wunderground v.1.15,2013-01-26 04:00:00,
2013-01-25 20:05:00,56.2,53.9,29.95,WSW,258,0.0,1.0,92,0.00,,,0.02,Wunderground v.1.15,2013-01-26 04:05:00,
2013-01-25 20:10:00,56.0,53.4,29.95,WSW,258,0.0,0.0,91,0.00,,,0.02,Wunderground v.1.15,2013-01-26 04:10:00,
2013-01-25 20:15:00,55.7,53.4,29.95,WSW,258,0.0,1.0,92,0.00,,,0.02,Wunderground v.1.15,2013-01-26 04:15:00,
2013-01-25 20:20:00,55.4,53.1,29.95,WSW,258,0.0,0.0,92,0.00,,,0.02,Wunderground v.1.15,2013-01-26 04:20:00,
2013-01-25 20:25:00,55.3,53.0,29.95,WSW,258,0.0,1.0,92,0.00,,,0.02,Wunderground v.1.15,2013-01-26 04:25:00,
2013-01-25 20:30:00,55.0,53.0,29.95,WSW,258,0.0,0.0,93,0.00,,,0.02,Wunderground v.1.15,2013-01-26 04:30:00,
2013-01-25 20:35:00,54.8,52.8,29.95,WSW,258,0.0,1.0,93,0.00,,,0.02,Wunderground v.1.15,2013-01-26 04:35:00,
2013-01-25 20:40:00,54.7,53.0,29.95,WSW,258,0.0,0.0,94,0.00,,,0.02,Wunderground v.1.15,2013-01-26 04:40:00,
2013-01-25 20:45:00,54.5,52.8,29.95,WSW,258,0.0,0.0,94,0.00,,,0.02,Wunderground v.1.15,2013-01-26 04:45:00,
2013-01-25 20:50:00,54.4,52.7,29.95,WSW,258,0.0,1.0,94,0.00,,,0.02,Wunderground v.1.15,2013-01-26 04:50:00,
2013-01-25 20:55:00,54.2,52.8,29.95,WSW,258,0.0,1.0,95,0.00,,,0.02,Wunderground v.1.15,2013-01-26 04:55:00,
2013-01-25 21:00:00,54.4,53.3,29.94,WSW,258,2.0,2.0,96,0.00,,,0.02,Wunderground v.1.15,2013-01-26 05:00:00,
2013-01-25 21:05:00,54.7,53.6,29.94,WSW,258,0.0,2.0,96,0.00,,,0.02,Wunderground v.1.15,2013-01-26 05:05:00,
2013-01-25 21:10:00,55.0,53.9,29.94,WSW,258,0.0,0.0,96,0.00,,,0.02,Wunderground v.1.15,2013-01-26 05:10:00,
2013-01-25 21:15:00,55.4,54.0,29.93,WSW,258,0.0,2.0,95,0.00,,,0.02,Wunderground v.1.15,2013-01-26 05:15:00,
2013-01-25 21:20:00,55.6,53.9,29.93,WSW,258,1.0,2.0,94,0.00,,,0.02,Wunderground v.1.15,2013-01-26 05:20:00,
2013-01-25 21:25:00,55.7,54.0,29.93,WSW,258,0.0,2.0,94,0.00,,,0.02,Wunderground v.1.15,2013-01-26 05:25:00,
2013-01-25 21:30:00,55.7,53.7,29.94,WSW,258,0.0,0.0,93,0.00,,,0.02,Wunderground v.1.15,2013-01-26 05:30:00,
2013-01-25 21:35:00,55.7,53.7,29.94,WSW,258,0.0,0.0,93,0.00,,,0.02,Wunderground v.1.15,2013-01-26 05:35:00,
2013-01-25 21:40:00,55.7,53.7,29.94,WSW,258,0.0,0.0,93,0.00,,,0.02,Wunderground v.1.15,2013-01-26 05:40:00,
2013-01-25 21:45:00,55.7,53.7,29.94,WSW,258,0.0,0.0,93,0.00,,,0.02,Wunderground v.1.15,2013-01-26 05:45:00,
2013-01-25 21:50:00,55.9,53.9,29.94,WSW,258,0.0,0.0,93,0.00,,,0.02,Wunderground v.1.15,2013-01-26 05:50:00,
2013-01-25 21:55:00,55.9,53.6,29.94,WSW,258,0.0,0.0,92,0.00,,,0.02,Wunderground v.1.15,2013-01-26 05:55:00,
2013-01-25 22:00:00,55.9,53.6,29.94,WSW,258,0.0,0.0,92,0.00,,,0.02,Wunderground v.1.15,2013-01-26 06:00:00,
2013-01-25 22:05:00,55.9,53.6,29.94,WSW,258,0.0,0.0,92,0.00,,,0.02,Wunderground v.1.15,2013-01-26 06:05:00,
2013-01-25 22:10:00,55.7,53.4,29.94,WSW,258,0.0,0.0,92,0.00,,,0.02,Wunderground v.1.15,2013-01-26 06:10:00,
2013-01-25 22:15:00,55.7,53.4,29.95,WSW,258,0.0,1.0,92,0.00,,,0.02,Wunderground v.1.15,2013-01-26 06:15:00,
2013-01-25 22:20:00,55.9,53.6,29.95,WSW,258,1.0,1.0,92,0.00,,,0.02,Wunderground v.1.15,2013-01-26 06:20:00,
2013-01-25 22:25:00,56.0,53.7,29.95,WSW,258,0.0,3.0,92,0.00,,,0.02,Wunderground v.1.15,2013-01-26 06:25:00,
2013-01-25 22:30:00,56.0,53.7,29.95,WSW,258,0.0,1.0,92,0.00,,,0.02,Wunderground v.1.15,2013-01-26 06:30:00,
2013-01-25 22:35:00,55.9,53.6,29.95,West,269,0.0,3.0,92,0.00,,,0.02,Wunderground v.1.15,2013-01-26 06:35:00,
2013-01-25 22:40:00,55.9,53.6,29.95,WNW,287,0.0,0.0,92,0.00,,,0.02,Wunderground v.1.15,2013-01-26 06:40:00,
2013-01-25 22:45:00,55.9,53.6,29.95,WNW,287,0.0,0.0,92,0.00,,,0.02,Wunderground v.1.15,2013-01-26 06:45:00,
2013-01-25 22:50:00,55.6,53.3,29.95,WNW,287,0.0,0.0,92,0.00,,,0.02,Wunderground v.1.15,2013-01-26 06:50:00,
2013-01-25 22:55:00,55.4,53.1,29.95,WNW,287,0.0,0.0,92,0.00,,,0.02,Wunderground v.1.15,2013-01-26 06:55:00,
2013-01-25 23:00:00,55.1,52.8,29.95,WNW,287,0.0,0.0,92,0.00,,,0.02,Wunderground v.1.15,2013-01-26 07:00:00,
2013-01-25 23:05:00,54.8,52.8,29.95,WNW,287,0.0,0.0,93,0.00,,,0.02,Wunderground v.1.15,2013-01-26 07:05:00,
2013-01-25 23:10:00,54.7,53.0,29.95,WNW,287,0.0,1.0,94,0.00,,,0.02,Wunderground v.1.15,2013-01-26 07:10:00,
2013-01-25 23:15:00,54.7,53.0,29.94,WNW,287,0.0,1.0,94,0.00,,,0.02,Wunderground v.1.15,2013-01-26 07:15:00,
2013-01-25 23:20:00,54.5,53.1,29.94,WNW,287,0.0,0.0,95,0.00,,,0.02,Wunderground v.1.15,2013-01-26 07:20:00,
2013-01-25 23:25:00,54.2,52.8,29.94,WNW,287,0.0,0.0,95,0.00,,,0.02,Wunderground v.1.15,2013-01-26 07:25:00,
2013-01-25 23:30:00,54.1,53.0,29.93,WNW,287,0.0,0.0,96,0.00,,,0.02,Wunderground v.1.15,2013-01-26 07:30:00,
2013-01-25 23:35:00,53.9,52.8,29.93,WNW,287,0.0,0.0,96,0.00,,,0.02,Wunderground v.1.15,2013-01-26 07:35:00,
2013-01-25 23:40:00,53.6,52.5,29.93,WNW,287,0.0,0.0,96,0.00,,,0.02,Wunderground v.1.15,2013-01-26 07:40:00,
2013-01-25 23:45:00,53.3,52.2,29.94,WNW,287,0.0,0.0,96,0.00,,,0.02,Wunderground v.1.15,2013-01-26 07:45:00,
2013-01-25 23:50:00,53.2,52.1,29.94,WNW,287,0.0,0.0,96,0.00,,,0.02,Wunderground v.1.15,2013-01-26 07:50:00,
2013-01-25 23:55:00,53.1,52.0,29.94,WNW,287,0.0,0.0,96,0.00,,,0.02,Wunderground v.1.15,2013-01-26 07:55:00,